Location: Asheville, NC
(35.6000°N, 82.5500°W)
Time: 15:33:28
(UTC-04:00)

AO-7 - Pass Details

Date: 15 March 2018
Orbit: 1440 x 1458 km, 101.7° (Epoch: 24 June)

Event Time Altitude Azimuth Distance (km) Brightness Sun altitude
Rises 05:59:52 0° 10° (N) 4,544 ? -21.2°
Reaches altitude 10° 06:02:45 10° 5° (N) 3,561 ? -20.7°
Maximum altitude 06:10:34 48° 295° (WNW) 1,809 ? -19.1°
Enters shadow 06:16:16 19° 230° (SW) 2,874 ? -18.0°
